Location: Dallas
(32.7833°N, 96.8000°W)
Time: 02:10:50
(UTC-06:00)

Envisat - Pass Details

Date: 22 October 2019
Orbit: 764 x 766 km, 98.1° (Epoch: 12 November)

Event Time Altitude Azimuth Distance (km) Brightness Sun altitude
Rises 19:32:02 0° 164° (SSE) 3,216 6.1 -10.3°
Reaches altitude 10° 19:34:20 10° 163° (SSE) 2,294 5.4 -10.8°
Maximum altitude 19:39:23 82° 76° (ENE) 777 2.9 -11.8°
Drops below altitude 10° 19:44:29 10° 350° (N) 2,306 5.5 -12.9°
Sets 19:46:47 0° 350° (N) 3,236 6.3 -13.4°
